Powrót do katalogu

FREGAT DEB

AktywnyUNKNOWN
NORAD 45650·DEBRIS·🇷🇺 Russia

Wystrzelony Jul 18, 2011 z Baikonur Cosmodrome

Loading…

Następne Przeloty (najbliższe 24 godziny)

TLE

ŚwieżeSource: Space-Track

Epoka: Sep 14, 2026, 08:06 UTC

1 45650U 11037AS  26257.33810308  .00003039  00000-0  58074-3 0  9992
2 45650  51.4586  29.7246 1669555 336.1161  17.0135 11.77056125265688

Śledź FREGAT DEB w czasie rzeczywistym z AllMySat

Download on the App Store